Location: Hains Lake
(37.8540°N, 99.8578°W)
Time: 10:23:02
(UTC+00:00)

Tiros 1 despin weight - Pass Details

Date: 22 April 2021
Orbit: 593 x 642 km, 48.2° (Epoch: 07 May)

Event Time Altitude Azimuth Distance (km) Brightness Sun altitude
Rises 17:29:59 0° 298° (WNW) 2,860 ? 60.4°
Reaches altitude 10° 17:32:24 10° 291° (WNW) 1,946 ? 60.7°
Maximum altitude 17:36:33 39° 222° (SW) 893 ? 61.1°
Drops below altitude 10° 17:40:39 10° 153° (SSE) 1,917 ? 61.6°
Sets 17:43:01 0° 145° (SE) 2,811 ? 61.8°
